www.pogodaiklimat.ru

Погода и климат >> Архив погоды >> Россия >> Якутия >> Чокурдах


АРХИВ ПОГОДЫ в Чокурдахе

Время (UTC), дата Ветер
(напр.,м/с)
 
Видим.   Явления Облачность Т
(С)
Тd
(С)
f
(%)
Тe
(С)
Тes
(С)
Комфортность P
(гПа)
Po
(гПа)
Тmin
(С)
Tmax
(С)
R
(мм)
R24
(мм)
S
(см)
09 18.05 С 5 20 км снежные кристаллы 10/10 720 м
[Sc]
-9.0 -13.6 69 -17 -17 1025.3 1017.2 -7.2 0.0
12 18.05 СЗ 3 20 км снежные кристаллы 10/10 700 м
[Sc]
-9.5 -12.0 82 -15 -15 1025.4 1017.3
15 18.05 С 3 20 км снежные кристаллы 10/10 570 м
[Sc]
-10.1 -12.9 80 -16 -16 1025.0 1016.9
18 18.05 С 3 20 км снежные кристаллы 10/10 300 м
[Sc]
-10.4 -13.5 78 -16 -16 1024.4 1016.3
21 18.05 С 3 20 км снежные кристаллы 10/10 330 м
[Sc]
-10.3 -14.0 74 -16 -16 1023.7 1015.6 -10.5 0.2 33
00 19.05 СЗ 2 20 км снежные кристаллы 10/10 360 м
[Sc]
-9.6 -14.1 70 -14 -14 1022.7 1014.7
03 19.05 С 3 20 км снежные кристаллы 10/10 300 м
[Sc]
-9.6 -13.6 73 -15 -15 1021.6 1013.6
06 19.05 С 3 20 км снежные кристаллы 10/10 480 м
[Sc]
-9.1 -13.2 72 -15 -15 1020.3 1012.3
09 19.05 СЗ 2 20 км снежные кристаллы 10/10 480 м
[Sc]
-9.3 -13.3 73 -14 -14 1019.7 1011.7 -8.6 0.2
12 19.05 СЗ 1 20 км снежные кристаллы 10/10 480 м
[Sc]
-9.9 -13.2 77 -12 -12 1019.4 1011.4
15 19.05 СЗ 2 20 км снежные кристаллы 10/10 500 м
[Sc]
-10.7 -14.0 77 -15 -15 1018.4 1010.4
18 19.05 З 3 20 км снежные кристаллы 10/10 420 м
[Sc]
-11.3 -14.5 77 -17 -17 1018.1 1010.0
21 19.05 З 3 20 км снежные кристаллы 10/10 360 м
[Sc]
-11.3 -14.4 78 -17 -17 1017.7 1009.7 -11.5 0.2 <0.5
00 20.05 ЮЗ 3 20 км снежные кристаллы 10/10 500 м
[Sc]
-10.2 -14.4 71 -16 -16 1017.9 1009.9
03 20.05 СЗ 2 20 км снежные кристаллы 10/10 540 м
[Sc]
-9.5 -13.8 71 -14 -14 1017.8 1009.8
06 20.05 С 1 20 км снежные кристаллы 10/10 500 м
[Sc]
-8.4 -13.0 69 -11 -11 1018.1 1010.1
09 20.05 Ю 3 20 км снежные кристаллы 10/10 600 м
[Sc]
-9.1 -13.2 72 -15 -15 1018.8 1010.8 -8.0 0.3
12 20.05 ЮВ 2 50 км {снег} 4/3 600 м
[Sc]
-11.3 -14.5 77 -16 -16 1019.0 1010.9
15 20.05 Ю 3 50 км 3/3 300 м
[Sc]
-13.4 -15.8 82 -20 -20 1019.3 1011.2
18 20.05 ЮВ 3 50 км 3/0
[Ac trans]
-10.9 -14.9 72 -17 -16 1019.0 1011.0
21 20.05 Ю 3 50 км 6/0
[Ac trans Ci fib]
-8.4 -13.9 64 -14 -12 1019.3 1011.3 -13.4 0.0 33
00 21.05 Ю 3 50 км 4/0
[Ci fib]
-2.5 -9.6 58 -7 -2 1019.2 1011.4
03 21.05 Ю 4 50 км 6/0
[Ci fib]
-0.2 -7.8 57 -5 0 1019.4 1011.7
06 21.05 Ю 4 50 км 4/0
[Ci fib]
+1.1 -6.6 56 -4 0 1019.7 1012.0
09 21.05 Ю 3 50 км ясно +0.9 -5.7 61 -3 -2 1020.6 1012.9 +1.2
12 21.05 Ю 3 50 км ясно -1.7 -7.1 67 -6 -6 1020.9 1013.1
15 21.05 Ю 3 50 км ясно -4.5 -9.1 70 -10 -10 1021.6 1013.7
18 21.05 Ю 4 50 км ясно -3.9 -9.2 67 -10 -9 1021.8 1013.9
21 21.05 Ю 5 50 км ясно -1.2 -7.5 62 -7 -5 1021.9 1014.1 -4.6 31
00 22.05 Ю 4 50 км ясно +1.6 -5.7 58 -3 +3 1021.5 1013.8
03 22.05 ЮВ 4 50 км ясно +2.3 -4.9 59 -2 +4 1020.4 1012.7
06 22.05 ЮВ 4
{10}
н/о н/о +1.3 -3.9 68 -4 -4 1019.4 1011.7
09 22.05 В 5 50 км ясно -0.6 -4.7 74 -7 -6 1018.1 1010.3 +2.5
12 22.05 В 4 50 км ясно -3.7 -7.6 74 -10 -10 1016.5 1008.7
15 22.05 ЮВ 4
{10}
50 км 4/0
[Ci fib]
-5.0 -8.5 76 -11 -11 1014.2 1006.4
18 22.05 ЮВ 6-12
{12}
50 км 6/0
[Ci fib]
-3.8 -7.6 75 -11 -11 1011.0 1003.2
21 22.05 В 6-11
{13}
50 км 10/0
[Ac trans Ci fib]
-1.9 -6.3 72 -9 -8 1008.9 1001.2 -5.0 28
00 23.05 В 6-11
{12}
50 км 6/0
[Ac trans Ci fib]
+1.7 -4.1 65 -4 -2 1007.1 999.5
03 23.05 В 8-16
{17}
50 км 10/0
[Ac und]
0.0 -4.4 72 -7 -7 1005.6 998.0
06 23.05 В 9-14
{16}
20 км слаб. дождь со снегом 10/10 900 м
[Sc]
-1.7 -4.4 82 -10 -10 1004.0 996.4
09 23.05 В 8-12
{14}
10 км слаб. снег 10/10 270 м
[St]
-2.0 -3.4 90 -10 -10 1002.5 994.9 +2.0 0.3
12 23.05 В 6-10
{14}
10 км слаб. снег 10/10 180 м
[St]
-2.3 -3.5 91 -10 -10 1001.3 993.7
15 23.05 В 6-10
{10}
50 км {снег} 6/0
[Ac trans]
-3.0 -4.2 91 -10 -10 1000.4 992.7
18 23.05 В 5
{11}
50 км 10/0
[Ac und]
-3.0 -4.2 91 -10 -10 999.8 992.1
21 23.05 В 5
{10}
50 км 10/8 150 м
[St Ac und]
-1.6 -2.8 92 -8 -8 998.9 991.3 -3.2 0.0 26
00 24.05 В 5
{10}
50 км 10/6 270 м
[St Ac trans]
-0.6 -2.0 90 -7 -6 998.8 991.2
03 24.05 В 4 20 км 10/10 150 м
[St]
+1.5 -0.3 88 -4 -4 999.1 991.5
06 24.05 Ю 2 20 км {дождь} 10/3 300 м
[St Ac trans]
+2.8 +0.7 86 -0 +1 999.2 991.7
09 24.05 ЮЗ 1 50 км 10/10 570 м
[Sc]
+2.2 +0.8 90 0 0 1000.5 993.0 +3.5 0.0
12 24.05 С 1 10 км слаб. морось 10/10 150 м
[St]
+0.8 0.0 94 -1 -1 1001.5 993.9
15 24.05 СЗ 3 1000 м дымка 10/10 90 м
[St]
+0.1 -0.6 95 -5 -5 1002.1 994.5
18 24.05 С 3 10 км дымка 10/10 120 м
[St]
-0.0 -0.6 96 -5 -5 1002.7 995.1
21 24.05 С 4 50 км 10/10 360 м
[St]
+0.3 -0.4 95 -5 -5 1002.6 995.1 -0.1 0.0 23
00 25.05 С 5 1000 м дымка 10/10 90 м
[St]
+0.5 -0.1 96 -6 -6 1003.1 995.5
03 25.05 С 4 1000 м слаб. морось 10/10 90 м
[St]
+1.0 +0.4 96 -4 -4 1003.3 995.8
06 25.05 С 4 1000 м дымка 10/10 90 м
[St]
+0.7 +0.1 96 -5 -5 1004.1 996.5

 

Местоположение метеостанции Чокурдах (Якутия, Россия): широта 70.62 долгота 147.80 высота над уровнем моря 61 м.

В архиве по умолчанию представлена погода в Чокурдахе за последнюю неделю. Архивные данные за месяц целиком и за предыдущие месяцы, начиная с января 2011 года, Вы можете получить, выбрав интересующий диапазон дат из раскрывающегося списка и нажав кнопку "Ввод!".


*Определитесь, кто Вы:
робот инопланетянин человек

Внимание! Время в таблицах - всемирное. Для получения местного времени необходимо прибавить поправку, которая равна 11 ч.

Смотрите также архив погоды в соседних городах и на ближайших метеорологических станциях:

Погода в Белой Горе (Якутия, Россия) (238 км)
Погода в Андрюшкино (Якутия, Россия) (302 км)
Погода в Депутатском (Якутия, Россия) (334 км)
Погода на Мысе Кигилях (Якутия, Россия) (408 км)
Погода в Среднеколымске (Якутия, Россия) (423 км)
Погода в Юбилейной (Якутия, Россия) (426 км)
Погода в Усть-Куйге (Якутия, Россия) (462 км)
Погода в Колымской (Якутия, Россия) (467 км)
Погода в Усть-Моме (Якутия, Россия) (500 км)
Погода на Проливе Санникова (Якутия, Россия) (537 км)

Пояснения к столбцам:

Ветер - указаны скорость ветра в м/с - средняя за 10 мин, порывы в срок и между сроками (в фигурных скобках) и направление, откуда дует ветер: С - северный, СВ - северо-восточный, В - восточный, ЮВ - юго-восточный, Ю - южный, ЮЗ - юго-западный, З - западный, СЗ - северо-западный.
Видимость - горизонтальная дальность видимости в метрах или километрах. При видимости от 1 до 10 км при отсутствии осадков обычно наблюдается дымка, при ухудшении видимости до 1 км и менее - туман. В сухую погоду видимость может ухудшаться дымом, пылью или мглою.
Явления - указаны атмосферные явления, наблюдавшиеся в срок или в последний час перед сроком; фигурными скобками обозначены явления, наблюдавшиеся между сроками (за 1-3 часа до срока); квадратными скобками обозначены град или гололедные отложения с указанием их диаметра в мм.
Облачность - указаны через наклонную черту общая и нижняя облачность в баллах и высота нижней границы облаков в метрах; квадратными скобками обозначены формы облаков: Ci - перистые, Cs - перисто-слоистые, Cc - перисто-кучевые, Ac - высококучевые, As - высокослоистые, Sc - слоисто-кучевые, Ns - слоисто-дождевые, Cu - кучевые, Cb - кучево-дождевые. Подробнее классификацию облаков см. в Атласе облаков (PDF).
T - Температура воздуха - температура, измеренная на высоте 2 м над землей.
Td - Температура точки росы - температура, при понижении до которой содержащийся в воздухе водяной пар достигнет насыщения.
f - Относительная влажность воздуха - влажноcть воздуха, измеренная на высоте 2 м над землей.
Te - Эффективная температура - температура, которую ощущает одетый по сезону человек в тени. Характеристика душности погоды. При расчете учитывается влияние влажности воздуха и скорости ветра на теплоощущения человека.
Tes - Эффективная температура на солнце - температура, которую ощущает человек, с поправкой на солнечный нагрев. Характеристика знойности погоды. Зависит от высоты солнца над горизонтом, облачности и скорости ветра. Ночью, в пасмурную погоду, а также при ветре 12 м/с и более поправка равна нулю.
P - Атмосферное давление - приведенное к уровню моря атмосферное давление.
Po - Атмосферное давление - измеренное на уровне метеостанции атмосферное давление.
Tmin - Минимальная температура - минимум температуры воздуха на высоте 2 м над землей.
Tmax - Максимальная температура - максимум температуры воздуха на высоте 2 м над землей.
R - Количество осадков - Количество выпавших осадков за период времени, мм. При наведении курсора мыши на число - период времени, за который выпало указанное количество осадков.
R24 - Количество осадков - Количество выпавших осадков за 24 часа, мм.
S - Снежный покров - Высота снежного покрова, см. При наведении курсора мыши на число - состояние снежного покрова и степень покрытия местности в баллах.